Regional Weather Roundup
Issued by NWS

Home | Current Version | Previous Version | Text Only | Print | Product List | Glossary On
Versions: 1 2 3 4 5 6 7 8 9 10 11 12 13 14 15 16 17 18 19 20 21 22 23 24 25 26 27 28 29 30 31 32 33 34 35 36 37 38 39 40 41 42 43 44 45 46 47 48 49 50
247
ASUS44 KJAN 240410
RWRMS

MISSISSIPPI HOURLY WEATHER ROUNDUP
NATIONAL WEATHER SERVICE JACKSON MS
1100 PM CDT MON OCT 23 2017

NOTE: "FAIR: INDICATES FEW OR NO CLOUDS BELOW 12,000 FEET WITH NO
SIGNIFICANT WEATHER AND/OR OBSTRUCTIONS TO VISIBILITY.

MSZ001>002-007>008-010>013-018>021-025>028-034>036-240500-
NORTHWEST MISSISSIPPI

CITY           SKY/WX    TMP DP  RH WIND       PRES   REMARKS
BATESVILLE     FAIR      60  46  59 SW9G17    30.00R
CLARKSDALE       N/A     59  50  72 W6        30.00R
CLEVELAND      FAIR      57  49  75 W5        30.02R
GREENWOOD      CLEAR     52  47  83 SW5       30.01R
GREENVILLE     CLEAR     61  46  57 W9        30.01R
OXFORD         FAIR      57  45  62 W13G18    29.99R
TUNICA           N/A    N/A N/A N/A NW9       30.00R
WINONA         FAIR      49  48  96 CALM      30.00S
$$

MSZ003>006-009-014>017-022>024-029>033-037>039-240500-
NORTHEAST MISSISSIPPI

CITY           SKY/WX    TMP DP  RH WIND       PRES   REMARKS
COLUMBUS AFB   CLEAR     51  48  89 SW7       29.98F
CORINTH        FAIR      52  45  76 SW5       29.93S HAZE
GOLDN TRIANGLE CLEAR     52  46  80 S6        30.00F
STARKVILLE     FAIR      46  45  93 S3        30.01S
TUPELO         CLEAR     57  44  62 SW6       29.96S
$$

MSZ040-058-240500-
CENTRAL MISSISSIPPI

CITY           SKY/WX    TMP DP  RH WIND       PRES   REMARKS
JACKSON INTL   CLEAR     53  47  79 SE3       30.04R
JACKSON HAWKNS CLEAR     53  50  89 CALM      30.04R
MADISON        FAIR      50  46  87 CALM      30.03S
MERIDIAN KEY   CLEAR     51  50  96 CALM      30.03S
MERIDIAN NAS   CLEAR     52  49  89 W5        30.03R
RAYMOND        FAIR      52  50  93 CALM      30.04S
VICKSBURG VKS  CLEAR     52  52 100 CALM      30.06S
$$

MSZ059>079-240500-
SOUTH MISSISSIPPI

CITY           SKY/WX    TMP DP  RH WIND       PRES   REMARKS
HATTIESBURG    CLEAR     52  52 100 CALM      30.06R
LAUREL         FAIR      49  49 100 CALM      30.05R
MCCOMB         CLEAR     52  49  89 CALM      30.07R
NATCHEZ        CLEAR     52  51  97 S3        30.08R
PINE BELT      CLEAR     51  49  92 CALM      30.05S
$$

MSZ080>082-240500-
COASTAL MISSISSIPPI

CITY           SKY/WX    TMP DP  RH WIND       PRES   REMARKS
BILOXI         CLEAR     59  50  72 CALM      30.05R
PASCAGOULA     CLEAR     55  52  89 CALM      30.05R
GULFPORT       CLEAR     56  53  90 CALM      30.05R
$$

LAZ007>009-015>016-023>026-240500-
NORTHEAST LOUISIANA

CITY           SKY/WX    TMP DP  RH WIND       PRES   REMARKS
BASTROP        FAIR      55  51  87 CALM      30.05S
TALLULAH/VBURG CLEAR     50  50 100 CALM      30.05R
VIDALIA          N/A    N/A N/A N/A MISG      30.06S
$$




USA.gov is the U.S. government's official web portal to all federal, state and local government web resources and services.